ONEWEB-0270, 48988

Orbit data source: Space-Track

ONEWEB-0270, 48988 is a payload satellite owned by One Web (NAA) (UK) in LEO that was launched on Thu, 01 Jul 2021 UTC via a SOYUZ-2-1B launch vehicle from the Vostochny Cosmodrome (VOSTO). Payload-class satellites include a variety of spacecraft equipped with specific instruments for various scientific and technological missions. These include communications satellites like Starlink; space stations such as the ISS; scientific satellites like the Hubble; Earth observation satellites from companies like Planet Labs, Umbra, and HawkEye 360; GPS; miniature CubeSats for education and research; and military/defense satellites.

Loading next visibility...
Identifier
48988, 2021-060X
Orbit
LEO
Country
Flag of UKUK
Related business
Manufacturer
One Web
Mission
Operational Commercial Communications
Bus & Motor
ARROW, Unknown motor
Mass
148 kg wet, ~140 kg dry
Launch date (UTC)
2021-07-01 (4 years ago)
Launch vehicle
SOYUZ-2-1B
Launch site
Vostochny Cosmodrome (VOSTO)
Object type
Payload
Rocket body
Debris
Shape & HBR
Trap Box + 2 Pan, 6.7 m
Radar Cross Section
3.464 m², Large (>1 m²)

Expand to show TLE details & history
Last TLE update: 9 hours ago

TLE from 9 hours ago
0 ONEWEB-0270
1 48988U 21060X   25349.80283387 -.00000125  00000-0 -36135-3 0  9999
2 48988  87.9046 265.2977 0001870  61.4287 298.7032 13.16596962215530
Epoch: 2025-12-15T19:16Z
TLE epoch observation values (Epoch: 2025-12-15T19:16:04.846Z)
Latitude
-0.00001°
Longitude
-108.41866°
Altitude
1,199.963 km
Speed
7.254 km/s
True Right ascension
17h 41m 11s
True Declination
0° 00' 00"
Sunlit
Object was in daylight at epoch
Visualization orbit readout
Latitude
Unknown
Longitude
Unknown
Altitude
Unknown
Speed
Unknown
Apparent Right ascension
Unknown
Apparent Declination
Unknown
Sunlit
N/A
Visualization observer readout
Local Sidereal Time
03:06:51
Azimuth
Unknown
Elevation
Unknown
Doppler factor
Unknown
Orbital elements
Apogee altitude
1,196.273 km
Perigee altitude
1,193.441 km
Semi-major axis
7,572.994 km
Eccentricity
0.00019
Inclination
87.9046°
RAAN
265.2977°
Arg. of periapsis
61.4287°
True anomaly
298.6844°
Mean anomaly
298.7032°
Eccentric anomaly
298.6938°
Mean motion
3.29338 °/min
Orbital period
109.31 mins
BSTAR
-0.00036135
Loading maneuver chart data...
Computing Atmospheric mass density...
Loading historical data...
Loading historical data...
Loading historical data...
Loading historical data...
Loading historical data...
Loading historical data...
Loading historical data...

Documentation

Showing up to 5 results
|